User: anonymous   Login
Location: Caltech
(34.1382°N, 118.1253°W)
Time: 03:57:44
(UTC-07:00)
Language:

NOSS 3-4 (C) - Orbit

View from above orbital plane
View from above orbital plane
View from above satellite
View from above satellite

Ground track
Ground track

The orbit data is extracted from the following two-line orbital elements,

1 31708U 07027C   15094.81586898 0.00000050  00000-0  86476-4 0    00
2 31708  63.4030 333.5476 0128000  30.3737 329.6263 13.40678136    02
Epoch (UTC): 04 April 2015 19:34:51
Eccentricity: 0.0128000
inclination: 63.4030°
perigee height: 1011 km
apogee height: 1202 km
right ascension of ascending node: 333.5476°
argument of perigee: 30.3737°
revolutions per day: 13.40678136
mean anomaly at epoch: 329.6263°
orbit number at epoch: 0

The dashed part of the orbit path shows where the satellite is in the earth's shadow,  

DLR